This is the latest recevied weather packets stored in our database for station/object W2JGA. If no packets are shown the sender has not sent any weather packets the latest 10 day(s).
| Time | Temp. | Humidity | Pressure | Rain* | Wind** | Luminosity | Snow |
|---|---|---|---|---|---|---|---|
| 1777987976 | 14.44° C | 93% | 1014.7 hPa | 0 mm | - | 46 W/m² | - |
| 1777987672 | 14.44° C | 94% | 1014.3 hPa | 0 mm | - | 39 W/m² | - |
| 1777987369 | 14.44° C | 94% | 1014.3 hPa | 0 mm | - | 33 W/m² | - |
| 1777987067 | 14.44° C | 94% | 1014.3 hPa | 0 mm | - | 23 W/m² | - |
| 1777986764 | 14.44° C | 94% | 1014.3 hPa | 0 mm | - | 18 W/m² | - |
| 1777986461 | 14.44° C | 94% | 1014.3 hPa | 0 mm | - | 19 W/m² | - |
| 1777986160 | 14.44° C | 95% | 1014.3 hPa | 0 mm | - | 11 W/m² | - |
| 1777985857 | 14.44° C | 94% | 1013.9 hPa | 0.25 mm | - | 7 W/m² | - |
| 1777985554 | 14.44° C | 95% | 1014.3 hPa | 0.25 mm | - | 6 W/m² | - |
| 1777985250 | 13.89° C | 95% | 1013.9 hPa | 0.25 mm | - | 4 W/m² | - |
| 1777984947 | 14.44° C | 95% | 1013.9 hPa | 0.25 mm | - | 2 W/m² | - |
| 1777984643 | 14.44° C | 95% | 1013.9 hPa | 0.25 mm | - | 0 W/m² | - |
| 1777984340 | 14.44° C | 95% | 1014.3 hPa | 0.25 mm | - | 0 W/m² | - |
| 1777984036 | 14.44° C | 95% | 1013.9 hPa | 0 mm | - | 0 W/m² | - |
| 1777983734 | 14.44° C | 95% | 1013.9 hPa | 0 mm | - | 0 W/m² | - |
| 1777983430 | 14.44° C | 95% | 1013.9 hPa | 0 mm | - | 0 W/m² | - |
| 1777983127 | 14.44° C | 95% | 1014.3 hPa | 0 mm | - | 0 W/m² | - |
| 1777982823 | 14.44° C | 95% | 1013.6 hPa | 0 mm | - | 0 W/m² | - |
| 1777982519 | 14.44° C | 95% | 1013.9 hPa | 0 mm | - | 0 W/m² | - |
| 1777982212 | 14.44° C | 95% | 1013.9 hPa | 0.25 mm | - | 0 W/m² | - |
| 1777981911 | 14.44° C | 95% | 1013.9 hPa | 0.25 mm | - | 0 W/m² | - |
| 1777981608 | 14.44° C | 94% | 1013.9 hPa | 0.25 mm | - | 0 W/m² | - |
| 1777981304 | 14.44° C | 94% | 1013.6 hPa | 0.25 mm | - | 0 W/m² | - |
| 1777981000 | 14.44° C | 94% | 1013.6 hPa | 0.25 mm | - | 0 W/m² | - |
| 1777980697 | 14.44° C | 94% | 1013.6 hPa | 0.25 mm | - | 0 W/m² | - |
* Rain latest hour (hover to see other rain measurements)
** Current wind speed in m/s (hover to see current wind gust speed)